Location: Eferding
(48.3167°N, 14.0167°E)
Time: 21:37:12
(UTC+00:00)

CORIOLIS - Pass Details

Date: 12 November 2019
Orbit: 819 x 838 km, 98.7° (Epoch: 06 December)

Event Time Altitude Azimuth Distance (km) Brightness Sun altitude
Rises 16:07:13 0° 153° (SSE) 3,355 7.2 -6.6°
Reaches altitude 10° 16:09:34 10° 150° (SSE) 2,429 6.5 -7.0°
Maximum altitude 16:14:52 63° 70° (ENE) 932 4.2 -7.8°
Drops below altitude 10° 16:20:14 10° 351° (N) 2,458 6.5 -8.7°
Sets 16:22:38 0° 348° (NNW) 3,398 7.3 -9.1°
